owner,sensor,date,latitude,longitude,air_temperature,qcFlag 
WAVCIS,ioos:station:WAVCIS:CSI09:1,2010-02-01T00:00:00Z,29.1015,-89.9782,6.98,11111222 
WAVCIS,ioos:station:WAVCIS:CSI09:1,2010-02-01T01:00:00Z,29.1015,-89.9782,7.11,11111222 
WAVCIS,ioos:station:WAVCIS:CSI09:1,2010-02-01T02:00:00Z,29.1015,-89.9782,7.42,11111222 
WAVCIS,ioos:station:WAVCIS:CSI09:1,2010-02-01T03:00:00Z,29.1015,-89.9782,7.85,11111222 
WAVCIS,ioos:station:WAVCIS:CSI09:1,2010-02-01T04:00:00Z,29.1015,-89.9782,8.36,11111222 
WAVCIS,ioos:station:WAVCIS:CSI09:1,2010-02-01T05:00:00Z,29.1015,-89.9782,8.81,11111222 
WAVCIS,ioos:station:WAVCIS:CSI09:1,2010-02-01T06:00:00Z,29.1015,-89.9782,9.3,11111222 
WAVCIS,ioos:station:WAVCIS:CSI09:1,2010-02-01T07:00:00Z,29.1015,-89.9782,9.68,11111222 
WAVCIS,ioos:station:WAVCIS:CSI09:1,2010-02-01T08:00:00Z,29.1015,-89.9782,9.91,11111222 
WAVCIS,ioos:station:WAVCIS:CSI09:1,2010-02-01T09:00:00Z,29.1015,-89.9782,10.15,11111222 
WAVCIS,ioos:station:WAVCIS:CSI09:1,2010-02-01T10:00:00Z,29.1015,-89.9782,9.54,11111222 
WAVCIS,ioos:station:WAVCIS:CSI09:1,2010-02-01T11:00:00Z,29.1015,-89.9782,9.69,11111222 
WAVCIS,ioos:station:WAVCIS:CSI09:1,2010-02-01T12:00:00Z,29.1015,-89.9782,9.67,11111222 
WAVCIS,ioos:station:WAVCIS:CSI09:1,2010-02-01T13:00:00Z,29.1015,-89.9782,9.88,11111222 
WAVCIS,ioos:station:WAVCIS:CSI09:1,2010-02-01T14:00:00Z,29.1015,-89.9782,10.18,11111222 
WAVCIS,ioos:station:WAVCIS:CSI09:1,2010-02-01T15:00:00Z,29.1015,-89.9782,10.54,11111222 
WAVCIS,ioos:station:WAVCIS:CSI09:1,2010-02-01T16:00:00Z,29.1015,-89.9782,10.92,11111222 
WAVCIS,ioos:station:WAVCIS:CSI09:1,2010-02-01T17:00:00Z,29.1015,-89.9782,11.19,11111222 
WAVCIS,ioos:station:WAVCIS:CSI09:1,2010-02-01T18:00:00Z,29.1015,-89.9782,11.51,11111222 
WAVCIS,ioos:station:WAVCIS:CSI09:1,2010-02-01T19:00:00Z,29.1015,-89.9782,11.94,11111222 
WAVCIS,ioos:station:WAVCIS:CSI09:1,2010-02-01T20:00:00Z,29.1015,-89.9782,12.32,11111222 
WAVCIS,ioos:station:WAVCIS:CSI09:1,2010-02-01T21:00:00Z,29.1015,-89.9782,12.33,11111222 
WAVCIS,ioos:station:WAVCIS:CSI09:1,2010-02-01T22:00:00Z,29.1015,-89.9782,12.38,11111222 
WAVCIS,ioos:station:WAVCIS:CSI09:1,2010-02-01T23:00:00Z,29.1015,-89.9782,12.15,11111222 
WAVCIS,ioos:station:WAVCIS:CSI09:1,2010-02-02T00:00:00Z,29.1015,-89.9782,12.09,11111222 
WAVCIS,ioos:station:WAVCIS:CSI09:1,2010-02-02T01:00:00Z,29.1015,-89.9782,12.32,11111222 
WAVCIS,ioos:station:WAVCIS:CSI09:1,2010-02-02T02:00:00Z,29.1015,-89.9782,12.7,11111222 
WAVCIS,ioos:station:WAVCIS:CSI09:1,2010-02-02T03:00:00Z,29.1015,-89.9782,12.76,11111222 
WAVCIS,ioos:station:WAVCIS:CSI09:1,2010-02-02T04:00:00Z,29.1015,-89.9782,12.96,11111222 
WAVCIS,ioos:station:WAVCIS:CSI09:1,2010-02-02T05:00:00Z,29.1015,-89.9782,12.97,11111222 
WAVCIS,ioos:station:WAVCIS:CSI09:1,2010-02-02T06:00:00Z,29.1015,-89.9782,12.8,11111222 
WAVCIS,ioos:station:WAVCIS:CSI09:1,2010-02-02T07:00:00Z,29.1015,-89.9782,12.72,11111222 
WAVCIS,ioos:station:WAVCIS:CSI09:1,2010-02-02T08:00:00Z,29.1015,-89.9782,12.98,11111222 
WAVCIS,ioos:station:WAVCIS:CSI09:1,2010-02-02T09:00:00Z,29.1015,-89.9782,12.78,11111222 
WAVCIS,ioos:station:WAVCIS:CSI09:1,2010-02-02T10:00:00Z,29.1015,-89.9782,12.74,11111222 
WAVCIS,ioos:station:WAVCIS:CSI09:1,2010-02-02T11:00:00Z,29.1015,-89.9782,12.52,11111222 
WAVCIS,ioos:station:WAVCIS:CSI09:1,2010-02-02T12:00:00Z,29.1015,-89.9782,12.37,11111222 
WAVCIS,ioos:station:WAVCIS:CSI09:1,2010-02-02T13:00:00Z,29.1015,-89.9782,12.1,11111222 
WAVCIS,ioos:station:WAVCIS:CSI09:1,2010-02-02T14:00:00Z,29.1015,-89.9782,12.38,11111222 
WAVCIS,ioos:station:WAVCIS:CSI09:1,2010-02-02T15:00:00Z,29.1015,-89.9782,11.89,11111222 
WAVCIS,ioos:station:WAVCIS:CSI09:1,2010-02-02T16:00:00Z,29.1015,-89.9782,12.12,11111222 
WAVCIS,ioos:station:WAVCIS:CSI09:1,2010-02-02T17:00:00Z,29.1015,-89.9782,12.99,11111222 
WAVCIS,ioos:station:WAVCIS:CSI09:1,2010-02-02T18:00:00Z,29.1015,-89.9782,12.94,11111222 
WAVCIS,ioos:station:WAVCIS:CSI09:1,2010-02-02T19:00:00Z,29.1015,-89.9782,13.77,11111222 
WAVCIS,ioos:station:WAVCIS:CSI09:1,2010-02-02T20:00:00Z,29.1015,-89.9782,14.42,11111222 
WAVCIS,ioos:station:WAVCIS:CSI09:1,2010-02-02T21:00:00Z,29.1015,-89.9782,17.09,11111222 
WAVCIS,ioos:station:WAVCIS:CSI09:1,2010-02-02T22:00:00Z,29.1015,-89.9782,18.66,11111222 
WAVCIS,ioos:station:WAVCIS:CSI09:1,2010-02-02T23:00:00Z,29.1015,-89.9782,15.65,11111222 
WAVCIS,ioos:station:WAVCIS:CSI09:1,2010-02-03T00:00:00Z,29.1015,-89.9782,14.45,11111222 
WAVCIS,ioos:station:WAVCIS:CSI09:1,2010-02-03T01:00:00Z,29.1015,-89.9782,14.65,11111222 
WAVCIS,ioos:station:WAVCIS:CSI09:1,2010-02-03T02:00:00Z,29.1015,-89.9782,14.76,11111222 
WAVCIS,ioos:station:WAVCIS:CSI09:1,2010-02-03T03:00:00Z,29.1015,-89.9782,14.46,11111222 
WAVCIS,ioos:station:WAVCIS:CSI09:1,2010-02-03T04:00:00Z,29.1015,-89.9782,14.07,11111222 
WAVCIS,ioos:station:WAVCIS:CSI09:1,2010-02-03T05:00:00Z,29.1015,-89.9782,14.54,11111222 
WAVCIS,ioos:station:WAVCIS:CSI09:1,2010-02-03T06:00:00Z,29.1015,-89.9782,13.02,11111222 
WAVCIS,ioos:station:WAVCIS:CSI09:1,2010-02-03T07:00:00Z,29.1015,-89.9782,12.5,11111222 
WAVCIS,ioos:station:WAVCIS:CSI09:1,2010-02-03T08:00:00Z,29.1015,-89.9782,12.01,11111222 
WAVCIS,ioos:station:WAVCIS:CSI09:1,2010-02-03T09:00:00Z,29.1015,-89.9782,11.64,11111222 
WAVCIS,ioos:station:WAVCIS:CSI09:1,2010-02-03T10:00:00Z,29.1015,-89.9782,11.66,11111222 
WAVCIS,ioos:station:WAVCIS:CSI09:1,2010-02-03T11:00:00Z,29.1015,-89.9782,11.6,11111222 
WAVCIS,ioos:station:WAVCIS:CSI09:1,2010-02-03T12:00:00Z,29.1015,-89.9782,11.45,11111222 
WAVCIS,ioos:station:WAVCIS:CSI09:1,2010-02-03T13:00:00Z,29.1015,-89.9782,11.49,11111222 
WAVCIS,ioos:station:WAVCIS:CSI09:1,2010-02-03T14:00:00Z,29.1015,-89.9782,11.61,11111222 
WAVCIS,ioos:station:WAVCIS:CSI09:1,2010-02-03T15:00:00Z,29.1015,-89.9782,11.65,11111222 
WAVCIS,ioos:station:WAVCIS:CSI09:1,2010-02-03T16:00:00Z,29.1015,-89.9782,11.75,11111222 
WAVCIS,ioos:station:WAVCIS:CSI09:1,2010-02-03T17:00:00Z,29.1015,-89.9782,11.88,11111222 
WAVCIS,ioos:station:WAVCIS:CSI09:1,2010-02-03T18:00:00Z,29.1015,-89.9782,11.98,11111222 
WAVCIS,ioos:station:WAVCIS:CSI09:1,2010-02-03T19:00:00Z,29.1015,-89.9782,12.25,11111222 
WAVCIS,ioos:station:WAVCIS:CSI09:1,2010-02-03T20:00:00Z,29.1015,-89.9782,12.11,11111222 
WAVCIS,ioos:station:WAVCIS:CSI09:1,2010-02-03T21:00:00Z,29.1015,-89.9782,12.13,11111222 
WAVCIS,ioos:station:WAVCIS:CSI09:1,2010-02-03T22:00:00Z,29.1015,-89.9782,11.96,11111222 
WAVCIS,ioos:station:WAVCIS:CSI09:1,2010-02-03T23:00:00Z,29.1015,-89.9782,12.51,11111222 
WAVCIS,ioos:station:WAVCIS:CSI09:1,2010-02-04T00:00:00Z,29.1015,-89.9782,13.29,11111222 
WAVCIS,ioos:station:WAVCIS:CSI09:1,2010-02-04T01:00:00Z,29.1015,-89.9782,13.71,11111222 
WAVCIS,ioos:station:WAVCIS:CSI09:1,2010-02-04T02:00:00Z,29.1015,-89.9782,13.94,11111222 
WAVCIS,ioos:station:WAVCIS:CSI09:1,2010-02-04T03:00:00Z,29.1015,-89.9782,14.06,11111222 
WAVCIS,ioos:station:WAVCIS:CSI09:1,2010-02-04T04:00:00Z,29.1015,-89.9782,13.95,11111222 
WAVCIS,ioos:station:WAVCIS:CSI09:1,2010-02-04T05:00:00Z,29.1015,-89.9782,13.61,11111222 
WAVCIS,ioos:station:WAVCIS:CSI09:1,2010-02-04T06:00:00Z,29.1015,-89.9782,13.3,11111222 
WAVCIS,ioos:station:WAVCIS:CSI09:1,2010-02-04T07:00:00Z,29.1015,-89.9782,13.08,11111222 
WAVCIS,ioos:station:WAVCIS:CSI09:1,2010-02-04T08:00:00Z,29.1015,-89.9782,12.86,11111222 
WAVCIS,ioos:station:WAVCIS:CSI09:1,2010-02-04T09:00:00Z,29.1015,-89.9782,12.67,11111222 
WAVCIS,ioos:station:WAVCIS:CSI09:1,2010-02-04T10:00:00Z,29.1015,-89.9782,13.18,11111222 
WAVCIS,ioos:station:WAVCIS:CSI09:1,2010-02-04T11:00:00Z,29.1015,-89.9782,13.74,11111222 
WAVCIS,ioos:station:WAVCIS:CSI09:1,2010-02-04T12:00:00Z,29.1015,-89.9782,13.75,11111222 
WAVCIS,ioos:station:WAVCIS:CSI09:1,2010-02-04T13:00:00Z,29.1015,-89.9782,13.85,11111222 
WAVCIS,ioos:station:WAVCIS:CSI09:1,2010-02-04T14:00:00Z,29.1015,-89.9782,14.13,11111222 
WAVCIS,ioos:station:WAVCIS:CSI09:1,2010-02-04T15:00:00Z,29.1015,-89.9782,14.26,11111222 
WAVCIS,ioos:station:WAVCIS:CSI09:1,2010-02-04T16:00:00Z,29.1015,-89.9782,14.88,11111222 
WAVCIS,ioos:station:WAVCIS:CSI09:1,2010-02-04T17:00:00Z,29.1015,-89.9782,14.82,11111222 
WAVCIS,ioos:station:WAVCIS:CSI09:1,2010-02-04T18:00:00Z,29.1015,-89.9782,14.59,11111222 
WAVCIS,ioos:station:WAVCIS:CSI09:1,2010-02-04T19:00:00Z,29.1015,-89.9782,16.19,11111222 
WAVCIS,ioos:station:WAVCIS:CSI09:1,2010-02-04T20:00:00Z,29.1015,-89.9782,16.03,11111222 
WAVCIS,ioos:station:WAVCIS:CSI09:1,2010-02-04T21:00:00Z,29.1015,-89.9782,17.3,11111222 
WAVCIS,ioos:station:WAVCIS:CSI09:1,2010-02-04T22:00:00Z,29.1015,-89.9782,18.81,11111222 
WAVCIS,ioos:station:WAVCIS:CSI09:1,2010-02-04T23:00:00Z,29.1015,-89.9782,17.79,11111222 
WAVCIS,ioos:station:WAVCIS:CSI09:1,2010-02-05T00:00:00Z,29.1015,-89.9782,16.72,11111222 
WAVCIS,ioos:station:WAVCIS:CSI09:1,2010-02-05T01:00:00Z,29.1015,-89.9782,16.5,11111222 
WAVCIS,ioos:station:WAVCIS:CSI09:1,2010-02-05T02:00:00Z,29.1015,-89.9782,16.1,11111222 
WAVCIS,ioos:station:WAVCIS:CSI09:1,2010-02-05T03:00:00Z,29.1015,-89.9782,15.87,11111222 
WAVCIS,ioos:station:WAVCIS:CSI09:1,2010-02-05T04:00:00Z,29.1015,-89.9782,15.21,11111222 
WAVCIS,ioos:station:WAVCIS:CSI09:1,2010-02-05T05:00:00Z,29.1015,-89.9782,14.61,11111222 
WAVCIS,ioos:station:WAVCIS:CSI09:1,2010-02-05T06:00:00Z,29.1015,-89.9782,14.76,11111222 
WAVCIS,ioos:station:WAVCIS:CSI09:1,2010-02-05T07:00:00Z,29.1015,-89.9782,14.32,11111222 
WAVCIS,ioos:station:WAVCIS:CSI09:1,2010-02-05T08:00:00Z,29.1015,-89.9782,13.33,11111222 
WAVCIS,ioos:station:WAVCIS:CSI09:1,2010-02-05T09:00:00Z,29.1015,-89.9782,12.92,11111222 
WAVCIS,ioos:station:WAVCIS:CSI09:1,2010-02-05T10:00:00Z,29.1015,-89.9782,12.81,11111222 
WAVCIS,ioos:station:WAVCIS:CSI09:1,2010-02-05T11:00:00Z,29.1015,-89.9782,12.37,11111222 
WAVCIS,ioos:station:WAVCIS:CSI09:1,2010-02-05T12:00:00Z,29.1015,-89.9782,12.48,11111222 
WAVCIS,ioos:station:WAVCIS:CSI09:1,2010-02-05T13:00:00Z,29.1015,-89.9782,12.68,11111222 
WAVCIS,ioos:station:WAVCIS:CSI09:1,2010-02-05T14:00:00Z,29.1015,-89.9782,12.36,11111222 
WAVCIS,ioos:station:WAVCIS:CSI09:1,2010-02-05T15:00:00Z,29.1015,-89.9782,11.52,11111222 
WAVCIS,ioos:station:WAVCIS:CSI09:1,2010-02-05T16:00:00Z,29.1015,-89.9782,11.76,11111222 
WAVCIS,ioos:station:WAVCIS:CSI09:1,2010-02-05T17:00:00Z,29.1015,-89.9782,12.05,11111222 
WAVCIS,ioos:station:WAVCIS:CSI09:1,2010-02-05T18:00:00Z,29.1015,-89.9782,12.26,11111222 
WAVCIS,ioos:station:WAVCIS:CSI09:1,2010-02-05T19:00:00Z,29.1015,-89.9782,11.8,11111222 
WAVCIS,ioos:station:WAVCIS:CSI09:1,2010-02-05T20:00:00Z,29.1015,-89.9782,12.12,11111222 
WAVCIS,ioos:station:WAVCIS:CSI09:1,2010-02-05T21:00:00Z,29.1015,-89.9782,12.29,11111222 
WAVCIS,ioos:station:WAVCIS:CSI09:1,2010-02-05T22:00:00Z,29.1015,-89.9782,11.88,11111222 
WAVCIS,ioos:station:WAVCIS:CSI09:1,2010-02-05T23:00:00Z,29.1015,-89.9782,11.05,11111222 
WAVCIS,ioos:station:WAVCIS:CSI09:1,2010-02-06T00:00:00Z,29.1015,-89.9782,10.79,11111222 
WAVCIS,ioos:station:WAVCIS:CSI09:1,2010-02-06T01:00:00Z,29.1015,-89.9782,10.93,11111222 
WAVCIS,ioos:station:WAVCIS:CSI09:1,2010-02-06T02:00:00Z,29.1015,-89.9782,10.58,11111222 
WAVCIS,ioos:station:WAVCIS:CSI09:1,2010-02-06T03:00:00Z,29.1015,-89.9782,10.91,11111222 
WAVCIS,ioos:station:WAVCIS:CSI09:1,2010-02-06T04:00:00Z,29.1015,-89.9782,11.0,11111222 
WAVCIS,ioos:station:WAVCIS:CSI09:1,2010-02-06T05:00:00Z,29.1015,-89.9782,11.3,11111222 
WAVCIS,ioos:station:WAVCIS:CSI09:1,2010-02-06T06:00:00Z,29.1015,-89.9782,11.12,11111222 
WAVCIS,ioos:station:WAVCIS:CSI09:1,2010-02-06T07:00:00Z,29.1015,-89.9782,10.54,11111222 
WAVCIS,ioos:station:WAVCIS:CSI09:1,2010-02-06T08:00:00Z,29.1015,-89.9782,9.89,11111222 
WAVCIS,ioos:station:WAVCIS:CSI09:1,2010-02-06T09:00:00Z,29.1015,-89.9782,9.83,11111222 
WAVCIS,ioos:station:WAVCIS:CSI09:1,2010-02-06T10:00:00Z,29.1015,-89.9782,9.76,11111222 
WAVCIS,ioos:station:WAVCIS:CSI09:1,2010-02-06T11:00:00Z,29.1015,-89.9782,10.15,11111222 
WAVCIS,ioos:station:WAVCIS:CSI09:1,2010-02-06T12:00:00Z,29.1015,-89.9782,10.68,11111222 
WAVCIS,ioos:station:WAVCIS:CSI09:1,2010-02-06T13:00:00Z,29.1015,-89.9782,10.88,11111222 
WAVCIS,ioos:station:WAVCIS:CSI09:1,2010-02-06T14:00:00Z,29.1015,-89.9782,10.39,11111222 
WAVCIS,ioos:station:WAVCIS:CSI09:1,2010-02-06T15:00:00Z,29.1015,-89.9782,9.96,11111222 
WAVCIS,ioos:station:WAVCIS:CSI09:1,2010-02-06T16:00:00Z,29.1015,-89.9782,9.45,11111222 
WAVCIS,ioos:station:WAVCIS:CSI09:1,2010-02-06T17:00:00Z,29.1015,-89.9782,9.54,11111222 
WAVCIS,ioos:station:WAVCIS:CSI09:1,2010-02-06T18:00:00Z,29.1015,-89.9782,9.86,11111222 
WAVCIS,ioos:station:WAVCIS:CSI09:1,2010-02-06T19:00:00Z,29.1015,-89.9782,10.68,11111222 
WAVCIS,ioos:station:WAVCIS:CSI09:1,2010-02-06T20:00:00Z,29.1015,-89.9782,11.31,11111222 
WAVCIS,ioos:station:WAVCIS:CSI09:1,2010-02-06T21:00:00Z,29.1015,-89.9782,11.77,11111222 
WAVCIS,ioos:station:WAVCIS:CSI09:1,2010-02-06T22:00:00Z,29.1015,-89.9782,12.12,11111222 
WAVCIS,ioos:station:WAVCIS:CSI09:1,2010-02-06T23:00:00Z,29.1015,-89.9782,11.41,11111222 
WAVCIS,ioos:station:WAVCIS:CSI09:1,2010-02-07T00:00:00Z,29.1015,-89.9782,10.73,11111222 
WAVCIS,ioos:station:WAVCIS:CSI09:1,2010-02-07T01:00:00Z,29.1015,-89.9782,9.44,11111222 
WAVCIS,ioos:station:WAVCIS:CSI09:1,2010-02-07T02:00:00Z,29.1015,-89.9782,8.63,11111222 
WAVCIS,ioos:station:WAVCIS:CSI09:1,2010-02-07T03:00:00Z,29.1015,-89.9782,7.81,11111222 
WAVCIS,ioos:station:WAVCIS:CSI09:1,2010-02-07T04:00:00Z,29.1015,-89.9782,7.31,11111222 
WAVCIS,ioos:station:WAVCIS:CSI09:1,2010-02-07T05:00:00Z,29.1015,-89.9782,6.97,11111222 
WAVCIS,ioos:station:WAVCIS:CSI09:1,2010-02-07T06:00:00Z,29.1015,-89.9782,6.61,11111222 
WAVCIS,ioos:station:WAVCIS:CSI09:1,2010-02-07T07:00:00Z,29.1015,-89.9782,6.57,11111222 
WAVCIS,ioos:station:WAVCIS:CSI09:1,2010-02-07T08:00:00Z,29.1015,-89.9782,6.25,11111222 
WAVCIS,ioos:station:WAVCIS:CSI09:1,2010-02-07T09:00:00Z,29.1015,-89.9782,6.1,11111222 
WAVCIS,ioos:station:WAVCIS:CSI09:1,2010-02-07T10:00:00Z,29.1015,-89.9782,5.859,11111222 
WAVCIS,ioos:station:WAVCIS:CSI09:1,2010-02-07T11:00:00Z,29.1015,-89.9782,5.405,11111222 
WAVCIS,ioos:station:WAVCIS:CSI09:1,2010-02-07T12:00:00Z,29.1015,-89.9782,5.557,11111222 
WAVCIS,ioos:station:WAVCIS:CSI09:1,2010-02-07T13:00:00Z,29.1015,-89.9782,5.598,11111222 
WAVCIS,ioos:station:WAVCIS:CSI09:1,2010-02-07T14:00:00Z,29.1015,-89.9782,5.755,11111222 
WAVCIS,ioos:station:WAVCIS:CSI09:1,2010-02-07T15:00:00Z,29.1015,-89.9782,5.951,11111222 
WAVCIS,ioos:station:WAVCIS:CSI09:1,2010-02-07T16:00:00Z,29.1015,-89.9782,6.18,11111222 
WAVCIS,ioos:station:WAVCIS:CSI09:1,2010-02-07T17:00:00Z,29.1015,-89.9782,6.45,11111222 
WAVCIS,ioos:station:WAVCIS:CSI09:1,2010-02-07T18:00:00Z,29.1015,-89.9782,6.71,11111222 
WAVCIS,ioos:station:WAVCIS:CSI09:1,2010-02-07T19:00:00Z,29.1015,-89.9782,7.15,11111222 
WAVCIS,ioos:station:WAVCIS:CSI09:1,2010-02-07T20:00:00Z,29.1015,-89.9782,7.71,11111222 
WAVCIS,ioos:station:WAVCIS:CSI09:1,2010-02-07T21:00:00Z,29.1015,-89.9782,8.39,11111222 
WAVCIS,ioos:station:WAVCIS:CSI09:1,2010-02-07T22:00:00Z,29.1015,-89.9782,8.45,11111222 
WAVCIS,ioos:station:WAVCIS:CSI09:1,2010-02-07T23:00:00Z,29.1015,-89.9782,8.93,11111222 
WAVCIS,ioos:station:WAVCIS:CSI09:1,2010-02-08T00:00:00Z,29.1015,-89.9782,8.16,11111222 
WAVCIS,ioos:station:WAVCIS:CSI09:1,2010-02-08T01:00:00Z,29.1015,-89.9782,8.15,11111222 
WAVCIS,ioos:station:WAVCIS:CSI09:1,2010-02-08T02:00:00Z,29.1015,-89.9782,8.23,11111222 
WAVCIS,ioos:station:WAVCIS:CSI09:1,2010-02-08T03:00:00Z,29.1015,-89.9782,8.19,11111222 
WAVCIS,ioos:station:WAVCIS:CSI09:1,2010-02-08T04:00:00Z,29.1015,-89.9782,8.7,11111222 
WAVCIS,ioos:station:WAVCIS:CSI09:1,2010-02-08T05:00:00Z,29.1015,-89.9782,8.79,11111222 
WAVCIS,ioos:station:WAVCIS:CSI09:1,2010-02-08T06:00:00Z,29.1015,-89.9782,8.83,11111222 
WAVCIS,ioos:station:WAVCIS:CSI09:1,2010-02-08T07:00:00Z,29.1015,-89.9782,9.11,11111222 
WAVCIS,ioos:station:WAVCIS:CSI09:1,2010-02-08T08:00:00Z,29.1015,-89.9782,9.21,11111222 
WAVCIS,ioos:station:WAVCIS:CSI09:1,2010-02-08T09:00:00Z,29.1015,-89.9782,9.63,11111222 
WAVCIS,ioos:station:WAVCIS:CSI09:1,2010-02-08T10:00:00Z,29.1015,-89.9782,10.0,11111222 
WAVCIS,ioos:station:WAVCIS:CSI09:1,2010-02-08T11:00:00Z,29.1015,-89.9782,10.24,11111222 
WAVCIS,ioos:station:WAVCIS:CSI09:1,2010-02-08T12:00:00Z,29.1015,-89.9782,10.63,11111222 
WAVCIS,ioos:station:WAVCIS:CSI09:1,2010-02-08T13:00:00Z,29.1015,-89.9782,10.94,11111222 
WAVCIS,ioos:station:WAVCIS:CSI09:1,2010-02-08T14:00:00Z,29.1015,-89.9782,11.72,11111222 
WAVCIS,ioos:station:WAVCIS:CSI09:1,2010-02-08T15:00:00Z,29.1015,-89.9782,12.76,11111222 
WAVCIS,ioos:station:WAVCIS:CSI09:1,2010-02-08T16:00:00Z,29.1015,-89.9782,13.63,11111222 
WAVCIS,ioos:station:WAVCIS:CSI09:1,2010-02-08T17:00:00Z,29.1015,-89.9782,13.89,11111222 
WAVCIS,ioos:station:WAVCIS:CSI09:1,2010-02-08T18:00:00Z,29.1015,-89.9782,13.98,11111222 
WAVCIS,ioos:station:WAVCIS:CSI09:1,2010-02-08T19:00:00Z,29.1015,-89.9782,14.24,11111222 
WAVCIS,ioos:station:WAVCIS:CSI09:1,2010-02-08T20:00:00Z,29.1015,-89.9782,14.69,11111222 
WAVCIS,ioos:station:WAVCIS:CSI09:1,2010-02-08T21:00:00Z,29.1015,-89.9782,14.86,11111222 
WAVCIS,ioos:station:WAVCIS:CSI09:1,2010-02-08T22:00:00Z,29.1015,-89.9782,14.81,11111222 
WAVCIS,ioos:station:WAVCIS:CSI09:1,2010-02-08T23:00:00Z,29.1015,-89.9782,14.98,11111222 
WAVCIS,ioos:station:WAVCIS:CSI09:1,2010-02-09T00:00:00Z,29.1015,-89.9782,14.77,11111222 
WAVCIS,ioos:station:WAVCIS:CSI09:1,2010-02-09T01:00:00Z,29.1015,-89.9782,14.91,11111222 
WAVCIS,ioos:station:WAVCIS:CSI09:1,2010-02-09T02:00:00Z,29.1015,-89.9782,15.1,11111222 
WAVCIS,ioos:station:WAVCIS:CSI09:1,2010-02-09T03:00:00Z,29.1015,-89.9782,15.9,11111222 
WAVCIS,ioos:station:WAVCIS:CSI09:1,2010-02-09T04:00:00Z,29.1015,-89.9782,16.47,11111222 
WAVCIS,ioos:station:WAVCIS:CSI09:1,2010-02-09T05:00:00Z,29.1015,-89.9782,16.38,11111222 
WAVCIS,ioos:station:WAVCIS:CSI09:1,2010-02-09T06:00:00Z,29.1015,-89.9782,16.26,11111222 
WAVCIS,ioos:station:WAVCIS:CSI09:1,2010-02-09T07:00:00Z,29.1015,-89.9782,15.5,11111222 
WAVCIS,ioos:station:WAVCIS:CSI09:1,2010-02-09T08:00:00Z,29.1015,-89.9782,15.86,11111222 
WAVCIS,ioos:station:WAVCIS:CSI09:1,2010-02-09T09:00:00Z,29.1015,-89.9782,15.95,11111222 
WAVCIS,ioos:station:WAVCIS:CSI09:1,2010-02-09T10:00:00Z,29.1015,-89.9782,15.9,11111222 
WAVCIS,ioos:station:WAVCIS:CSI09:1,2010-02-09T11:00:00Z,29.1015,-89.9782,15.18,11111222 
WAVCIS,ioos:station:WAVCIS:CSI09:1,2010-02-09T12:00:00Z,29.1015,-89.9782,14.68,11111222 
WAVCIS,ioos:station:WAVCIS:CSI09:1,2010-02-09T13:00:00Z,29.1015,-89.9782,13.97,11111222 
WAVCIS,ioos:station:WAVCIS:CSI09:1,2010-02-09T14:00:00Z,29.1015,-89.9782,11.6,11111222 
WAVCIS,ioos:station:WAVCIS:CSI09:1,2010-02-09T15:00:00Z,29.1015,-89.9782,9.94,11111222 
WAVCIS,ioos:station:WAVCIS:CSI09:1,2010-02-09T16:00:00Z,29.1015,-89.9782,9.23,11111222 
WAVCIS,ioos:station:WAVCIS:CSI09:1,2010-02-09T17:00:00Z,29.1015,-89.9782,8.89,11111222 
WAVCIS,ioos:station:WAVCIS:CSI09:1,2010-02-09T18:00:00Z,29.1015,-89.9782,8.95,11111222 
WAVCIS,ioos:station:WAVCIS:CSI09:1,2010-02-09T19:00:00Z,29.1015,-89.9782,8.82,11111222 
WAVCIS,ioos:station:WAVCIS:CSI09:1,2010-02-09T20:00:00Z,29.1015,-89.9782,8.77,11111222 
WAVCIS,ioos:station:WAVCIS:CSI09:1,2010-02-09T21:00:00Z,29.1015,-89.9782,8.86,11111222 
WAVCIS,ioos:station:WAVCIS:CSI09:1,2010-02-09T22:00:00Z,29.1015,-89.9782,8.85,11111222 
WAVCIS,ioos:station:WAVCIS:CSI09:1,2010-02-09T23:00:00Z,29.1015,-89.9782,8.55,11111222 
WAVCIS,ioos:station:WAVCIS:CSI09:1,2010-02-10T00:00:00Z,29.1015,-89.9782,8.3,11111222 
WAVCIS,ioos:station:WAVCIS:CSI09:1,2010-02-10T01:00:00Z,29.1015,-89.9782,8.54,11111222 
WAVCIS,ioos:station:WAVCIS:CSI09:1,2010-02-10T02:00:00Z,29.1015,-89.9782,8.63,11111222 
WAVCIS,ioos:station:WAVCIS:CSI09:1,2010-02-10T03:00:00Z,29.1015,-89.9782,8.47,11111222 
WAVCIS,ioos:station:WAVCIS:CSI09:1,2010-02-10T04:00:00Z,29.1015,-89.9782,7.79,11111222 
WAVCIS,ioos:station:WAVCIS:CSI09:1,2010-02-10T05:00:00Z,29.1015,-89.9782,7.19,11111222 
WAVCIS,ioos:station:WAVCIS:CSI09:1,2010-02-10T06:00:00Z,29.1015,-89.9782,6.68,11111222 
WAVCIS,ioos:station:WAVCIS:CSI09:1,2010-02-10T07:00:00Z,29.1015,-89.9782,6.43,11111222 
WAVCIS,ioos:station:WAVCIS:CSI09:1,2010-02-10T08:00:00Z,29.1015,-89.9782,5.699,11111222 
WAVCIS,ioos:station:WAVCIS:CSI09:1,2010-02-10T09:00:00Z,29.1015,-89.9782,5.122,11111222 
WAVCIS,ioos:station:WAVCIS:CSI09:1,2010-02-10T10:00:00Z,29.1015,-89.9782,5.006,11111222 
WAVCIS,ioos:station:WAVCIS:CSI09:1,2010-02-10T11:00:00Z,29.1015,-89.9782,4.698,11111222 
WAVCIS,ioos:station:WAVCIS:CSI09:1,2010-02-10T12:00:00Z,29.1015,-89.9782,4.189,11111222 
WAVCIS,ioos:station:WAVCIS:CSI09:1,2010-02-10T13:00:00Z,29.1015,-89.9782,3.526,11111222 
WAVCIS,ioos:station:WAVCIS:CSI09:1,2010-02-10T14:00:00Z,29.1015,-89.9782,3.267,11111222 
WAVCIS,ioos:station:WAVCIS:CSI09:1,2010-02-10T15:00:00Z,29.1015,-89.9782,3.155,11111222 
WAVCIS,ioos:station:WAVCIS:CSI09:1,2010-02-10T16:00:00Z,29.1015,-89.9782,3.317,11111222 
WAVCIS,ioos:station:WAVCIS:CSI09:1,2010-02-10T17:00:00Z,29.1015,-89.9782,3.542,11111222 
WAVCIS,ioos:station:WAVCIS:CSI09:1,2010-02-10T18:00:00Z,29.1015,-89.9782,4.034,11111222 
WAVCIS,ioos:station:WAVCIS:CSI09:1,2010-02-10T19:00:00Z,29.1015,-89.9782,5.153,11111222 
WAVCIS,ioos:station:WAVCIS:CSI09:1,2010-02-10T20:00:00Z,29.1015,-89.9782,5.806,11111222 
WAVCIS,ioos:station:WAVCIS:CSI09:1,2010-02-10T21:00:00Z,29.1015,-89.9782,6.4,11111222 
WAVCIS,ioos:station:WAVCIS:CSI09:1,2010-02-10T22:00:00Z,29.1015,-89.9782,7.12,11111222 
WAVCIS,ioos:station:WAVCIS:CSI09:1,2010-02-10T23:00:00Z,29.1015,-89.9782,7.3,11111222 
WAVCIS,ioos:station:WAVCIS:CSI09:1,2010-02-11T00:00:00Z,29.1015,-89.9782,7.31,11111222 
WAVCIS,ioos:station:WAVCIS:CSI09:1,2010-02-11T01:00:00Z,29.1015,-89.9782,7.63,11111222 
WAVCIS,ioos:station:WAVCIS:CSI09:1,2010-02-11T02:00:00Z,29.1015,-89.9782,7.55,11111222 
WAVCIS,ioos:station:WAVCIS:CSI09:1,2010-02-11T03:00:00Z,29.1015,-89.9782,7.79,11111222 
WAVCIS,ioos:station:WAVCIS:CSI09:1,2010-02-11T04:00:00Z,29.1015,-89.9782,7.83,11111222 
WAVCIS,ioos:station:WAVCIS:CSI09:1,2010-02-11T05:00:00Z,29.1015,-89.9782,8.01,11111222 
WAVCIS,ioos:station:WAVCIS:CSI09:1,2010-02-11T06:00:00Z,29.1015,-89.9782,7.98,11111222 
WAVCIS,ioos:station:WAVCIS:CSI09:1,2010-02-11T07:00:00Z,29.1015,-89.9782,7.73,11111222 
WAVCIS,ioos:station:WAVCIS:CSI09:1,2010-02-11T08:00:00Z,29.1015,-89.9782,7.51,11111222 
WAVCIS,ioos:station:WAVCIS:CSI09:1,2010-02-11T09:00:00Z,29.1015,-89.9782,7.37,11111222 
WAVCIS,ioos:station:WAVCIS:CSI09:1,2010-02-11T10:00:00Z,29.1015,-89.9782,7.27,11111222 
WAVCIS,ioos:station:WAVCIS:CSI09:1,2010-02-11T11:00:00Z,29.1015,-89.9782,6.98,11111222 
WAVCIS,ioos:station:WAVCIS:CSI09:1,2010-02-11T12:00:00Z,29.1015,-89.9782,6.91,11111222 
WAVCIS,ioos:station:WAVCIS:CSI09:1,2010-02-11T13:00:00Z,29.1015,-89.9782,6.8,11111222 
WAVCIS,ioos:station:WAVCIS:CSI09:1,2010-02-11T14:00:00Z,29.1015,-89.9782,7.05,11111222 
WAVCIS,ioos:station:WAVCIS:CSI09:1,2010-02-11T15:00:00Z,29.1015,-89.9782,6.96,11111222 
WAVCIS,ioos:station:WAVCIS:CSI09:1,2010-02-11T16:00:00Z,29.1015,-89.9782,7.11,11111222 
WAVCIS,ioos:station:WAVCIS:CSI09:1,2010-02-11T17:00:00Z,29.1015,-89.9782,7.35,11111222 
WAVCIS,ioos:station:WAVCIS:CSI09:1,2010-02-11T18:00:00Z,29.1015,-89.9782,7.71,11111222 
WAVCIS,ioos:station:WAVCIS:CSI09:1,2010-02-11T19:00:00Z,29.1015,-89.9782,7.77,11111222 
WAVCIS,ioos:station:WAVCIS:CSI09:1,2010-02-11T20:00:00Z,29.1015,-89.9782,7.72,11111222 
WAVCIS,ioos:station:WAVCIS:CSI09:1,2010-02-11T21:00:00Z,29.1015,-89.9782,7.44,11111222 
WAVCIS,ioos:station:WAVCIS:CSI09:1,2010-02-11T22:00:00Z,29.1015,-89.9782,7.17,11111222 
WAVCIS,ioos:station:WAVCIS:CSI09:1,2010-02-11T23:00:00Z,29.1015,-89.9782,6.92,11111222 
WAVCIS,ioos:station:WAVCIS:CSI09:1,2010-02-12T00:00:00Z,29.1015,-89.9782,7.15,11111222 
WAVCIS,ioos:station:WAVCIS:CSI09:1,2010-02-12T01:00:00Z,29.1015,-89.9782,7.11,11111222 
WAVCIS,ioos:station:WAVCIS:CSI09:1,2010-02-12T02:00:00Z,29.1015,-89.9782,7.01,11111222 
WAVCIS,ioos:station:WAVCIS:CSI09:1,2010-02-12T03:00:00Z,29.1015,-89.9782,7.03,11111222 
WAVCIS,ioos:station:WAVCIS:CSI09:1,2010-02-12T04:00:00Z,29.1015,-89.9782,7.13,11111222 
WAVCIS,ioos:station:WAVCIS:CSI09:1,2010-02-12T05:00:00Z,29.1015,-89.9782,7.01,11111222 